Time,TemperatureF,DewpointF,PressureIn,WindDirection,WindDirectionDegrees,WindSpeedMPH,WindSpeedGustMPH,Humidity,HourlyPrecipIn,Conditions,Clouds,dailyrainin,SoftwareType,DateUTC
2013-02-20 00:00:00,36.9,28.9,29.69,West,273,1.0,5.0,73,0.00,,,0.33,meteohub,2013-02-20 05:00:00,
2013-02-20 00:05:00,36.9,28.8,29.68,West,267,1.0,5.0,72,0.00,,,0.00,meteohub,2013-02-20 05:05:00,
2013-02-20 00:10:00,36.7,28.2,29.69,WSW,255,6.0,6.0,71,0.00,,,0.00,meteohub,2013-02-20 05:10:00,
2013-02-20 00:15:00,36.5,26.6,29.69,West,280,1.0,5.0,67,0.00,,,0.00,meteohub,2013-02-20 05:15:00,
2013-02-20 00:20:00,36.5,25.9,29.69,WSW,246,3.0,6.0,65,0.00,,,0.00,meteohub,2013-02-20 05:20:00,
2013-02-20 00:25:00,36.7,25.7,29.69,WNW,291,1.0,8.0,64,0.00,,,0.00,meteohub,2013-02-20 05:25:00,
2013-02-20 00:30:00,36.5,25.9,29.68,West,263,2.0,8.0,65,0.00,,,0.00,meteohub,2013-02-20 05:30:00,
2013-02-20 00:35:00,36.3,25.7,29.68,West,259,1.0,6.0,65,0.00,,,0.00,meteohub,2013-02-20 05:35:00,
2013-02-20 00:40:00,36.3,25.3,29.68,West,270,2.0,8.0,64,0.00,,,0.00,meteohub,2013-02-20 05:40:00,
2013-02-20 00:45:00,36.1,25.5,29.69,West,273,3.0,8.0,65,0.00,,,0.00,meteohub,2013-02-20 05:45:00,
2013-02-20 00:50:00,36.0,25.7,29.69,West,278,3.0,8.0,66,0.00,,,0.00,meteohub,2013-02-20 05:50:00,
2013-02-20 00:55:00,36.0,25.7,29.69,WSW,248,1.0,5.0,66,0.00,,,0.00,meteohub,2013-02-20 05:55:00,
2013-02-20 01:00:00,35.8,25.9,29.69,West,263,0.0,5.0,67,0.00,,,0.00,meteohub,2013-02-20 06:00:00,
2013-02-20 01:05:00,35.4,25.9,29.69,WNW,287,0.0,5.0,68,0.00,,,0.00,meteohub,2013-02-20 06:05:00,
2013-02-20 01:10:00,35.2,25.3,29.69,SW,232,0.0,6.0,67,0.00,,,0.00,meteohub,2013-02-20 06:10:00,
2013-02-20 01:15:00,35.2,25.7,29.69,WSW,255,0.0,6.0,68,0.00,,,0.00,meteohub,2013-02-20 06:15:00,
2013-02-20 01:20:00,35.1,25.5,29.69,WSW,237,0.0,6.0,68,0.00,,,0.00,meteohub,2013-02-20 06:20:00,
2013-02-20 01:25:00,35.1,25.5,29.69,WSW,252,0.0,4.0,68,0.00,,,0.00,meteohub,2013-02-20 06:25:00,
2013-02-20 01:30:00,35.1,25.5,29.69,WNW,283,0.0,4.0,68,0.00,,,0.00,meteohub,2013-02-20 06:30:00,
2013-02-20 01:35:00,35.1,25.2,29.69,West,264,0.0,5.0,67,0.00,,,0.00,meteohub,2013-02-20 06:35:00,
2013-02-20 01:40:00,35.1,24.8,29.69,WSW,237,2.0,5.0,66,0.00,,,0.00,meteohub,2013-02-20 06:40:00,
2013-02-20 01:45:00,35.1,25.2,29.69,SW,221,1.0,5.0,67,0.00,,,0.00,meteohub,2013-02-20 06:45:00,
2013-02-20 01:50:00,34.9,25.0,29.69,WSW,248,1.0,4.0,67,0.00,,,0.00,meteohub,2013-02-20 06:50:00,
2013-02-20 01:55:00,34.7,25.2,29.69,WNW,283,1.0,3.0,68,0.00,,,0.00,meteohub,2013-02-20 06:55:00,
2013-02-20 02:00:00,34.5,25.0,29.69,West,262,0.0,3.0,68,0.00,,,0.00,meteohub,2013-02-20 07:00:00,
2013-02-20 02:05:00,34.5,25.3,29.70,WSW,245,0.0,3.0,69,0.00,,,0.00,meteohub,2013-02-20 07:05:00,
2013-02-20 02:10:00,34.3,25.2,29.69,WSW,258,0.0,3.0,69,0.00,,,0.00,meteohub,2013-02-20 07:10:00,
2013-02-20 02:15:00,34.2,25.0,29.70,West,280,1.0,3.0,69,0.00,,,0.00,meteohub,2013-02-20 07:15:00,
2013-02-20 02:20:00,34.2,25.0,29.70,NW,311,0.0,4.0,69,0.00,,,0.00,meteohub,2013-02-20 07:20:00,
2013-02-20 02:25:00,34.2,24.6,29.70,WSW,242,0.0,4.0,68,0.00,,,0.00,meteohub,2013-02-20 07:25:00,
2013-02-20 02:30:00,34.2,24.6,29.70,WSW,257,1.0,4.0,68,0.00,,,0.00,meteohub,2013-02-20 07:30:00,
2013-02-20 02:35:00,34.2,24.4,29.70,West,262,3.0,5.0,67,0.00,,,0.00,meteohub,2013-02-20 07:35:00,
2013-02-20 02:40:00,34.2,24.4,29.70,WSW,252,2.0,5.0,67,0.00,,,0.00,meteohub,2013-02-20 07:40:00,
2013-02-20 02:45:00,34.2,24.4,29.70,West,278,1.0,5.0,67,0.00,,,0.00,meteohub,2013-02-20 07:45:00,
2013-02-20 02:50:00,34.0,24.3,29.70,WSW,252,0.0,5.0,67,0.00,,,0.00,meteohub,2013-02-20 07:50:00,
2013-02-20 02:55:00,34.0,24.6,29.70,West,262,0.0,5.0,68,0.00,,,0.00,meteohub,2013-02-20 07:55:00,
2013-02-20 03:00:00,33.6,24.3,29.70,West,266,2.0,4.0,68,0.00,,,0.00,meteohub,2013-02-20 08:00:00,
2013-02-20 03:06:00,33.6,23.9,29.70,SW,219,1.0,5.0,67,0.00,,,0.00,meteohub,2013-02-20 08:06:00,
2013-02-20 03:10:00,33.6,23.9,29.70,West,263,1.0,5.0,67,0.00,,,0.00,meteohub,2013-02-20 08:10:00,
2013-02-20 03:15:00,33.6,23.9,29.70,WNW,291,1.0,5.0,67,0.00,,,0.00,meteohub,2013-02-20 08:15:00,
2013-02-20 03:20:00,33.4,23.7,29.70,West,270,2.0,5.0,67,0.00,,,0.00,meteohub,2013-02-20 08:20:00,
2013-02-20 03:25:00,33.3,23.2,29.70,WSW,255,0.0,4.0,66,0.00,,,0.00,meteohub,2013-02-20 08:25:00,
2013-02-20 03:30:00,33.3,23.2,29.70,WSW,246,0.0,4.0,66,0.00,,,0.00,meteohub,2013-02-20 08:30:00,
2013-02-20 03:35:00,33.3,23.2,29.70,WSW,246,0.0,5.0,66,0.00,,,0.00,meteohub,2013-02-20 08:35:00,
2013-02-20 03:40:00,33.1,23.0,29.70,WSW,257,1.0,5.0,66,0.00,,,0.00,meteohub,2013-02-20 08:40:00,
2013-02-20 03:45:00,33.1,23.4,29.70,East,82,0.0,4.0,67,0.00,,,0.00,meteohub,2013-02-20 08:45:00,
2013-02-20 03:50:00,32.9,23.2,29.70,SE,126,1.0,4.0,67,0.00,,,0.00,meteohub,2013-02-20 08:50:00,
2013-02-20 03:55:00,32.7,23.0,29.71,WSW,254,3.0,4.0,67,0.00,,,0.00,meteohub,2013-02-20 08:55:00,
2013-02-20 04:01:00,32.5,23.2,29.71,WSW,253,1.0,3.0,68,0.00,,,0.00,meteohub,2013-02-20 09:01:00,
2013-02-20 04:06:00,32.5,23.2,29.71,WSW,255,0.0,3.0,68,0.00,,,0.00,meteohub,2013-02-20 09:06:00,
2013-02-20 04:11:00,32.5,23.5,29.72,West,278,0.0,5.0,69,0.00,,,0.00,meteohub,2013-02-20 09:11:00,
2013-02-20 04:16:00,32.4,23.4,29.71,WSW,240,0.0,5.0,69,0.00,,,0.00,meteohub,2013-02-20 09:16:00,
2013-02-20 04:21:00,32.2,23.5,29.72,West,271,2.0,4.0,70,0.00,,,0.00,meteohub,2013-02-20 09:21:00,
2013-02-20 04:26:00,32.2,23.2,29.72,SW,225,4.0,7.0,69,0.00,,,0.00,meteohub,2013-02-20 09:26:00,
2013-02-20 04:31:00,32.2,22.8,29.72,WNW,284,2.0,7.0,68,0.00,,,0.00,meteohub,2013-02-20 09:31:00,
2013-02-20 04:36:00,32.2,22.8,29.72,West,280,0.0,7.0,68,0.00,,,0.00,meteohub,2013-02-20 09:36:00,
2013-02-20 04:41:00,31.8,22.5,29.73,West,281,1.0,5.0,68,0.00,,,0.00,meteohub,2013-02-20 09:41:00,
2013-02-20 04:46:00,31.6,22.6,29.73,WSW,250,0.0,3.0,69,0.00,,,0.00,meteohub,2013-02-20 09:46:00,
2013-02-20 04:51:00,31.6,23.0,29.73,WSW,252,4.0,4.0,70,0.00,,,0.00,meteohub,2013-02-20 09:51:00,
2013-02-20 04:56:00,31.6,23.0,29.73,West,267,0.0,5.0,70,0.00,,,0.00,meteohub,2013-02-20 09:56:00,
2013-02-20 05:01:00,31.6,22.3,29.73,WSW,250,1.0,5.0,68,0.00,,,0.00,meteohub,2013-02-20 10:01:00,
2013-02-20 05:06:00,31.6,21.9,29.73,West,280,0.0,5.0,67,0.00,,,0.00,meteohub,2013-02-20 10:06:00,
2013-02-20 05:11:00,31.6,21.9,29.74,NW,309,0.0,5.0,67,0.00,,,0.00,meteohub,2013-02-20 10:11:00,
2013-02-20 05:16:00,31.6,21.9,29.74,West,271,0.0,5.0,67,0.00,,,0.00,meteohub,2013-02-20 10:16:00,
2013-02-20 05:21:00,31.8,21.7,29.74,SW,229,0.0,4.0,66,0.00,,,0.00,meteohub,2013-02-20 10:21:00,
2013-02-20 05:26:00,31.8,22.1,29.74,West,264,1.0,4.0,67,0.00,,,0.00,meteohub,2013-02-20 10:26:00,
2013-02-20 05:31:00,31.8,22.5,29.74,West,259,2.0,4.0,68,0.00,,,0.00,meteohub,2013-02-20 10:31:00,
2013-02-20 05:36:00,31.8,21.7,29.75,WSW,240,1.0,5.0,66,0.00,,,0.00,meteohub,2013-02-20 10:36:00,
2013-02-20 05:41:00,31.6,21.6,29.75,SW,236,2.0,6.0,66,0.00,,,0.00,meteohub,2013-02-20 10:41:00,
2013-02-20 05:46:00,31.6,21.9,29.75,SSW,210,1.0,6.0,67,0.00,,,0.00,meteohub,2013-02-20 10:46:00,
2013-02-20 05:51:00,31.6,21.9,29.75,WSW,255,0.0,4.0,67,0.00,,,0.00,meteohub,2013-02-20 10:51:00,
2013-02-20 05:56:00,31.6,21.6,29.75,WSW,255,0.0,5.0,66,0.00,,,0.00,meteohub,2013-02-20 10:56:00,
2013-02-20 06:01:00,31.5,21.4,29.75,SW,225,1.0,5.0,66,0.00,,,0.00,meteohub,2013-02-20 11:01:00,
2013-02-20 06:06:00,31.5,21.0,29.76,NNW,334,0.0,5.0,65,0.00,,,0.00,meteohub,2013-02-20 11:06:00,
2013-02-20 06:11:00,31.5,21.0,29.76,West,264,1.0,4.0,65,0.00,,,0.00,meteohub,2013-02-20 11:11:00,
2013-02-20 06:16:00,31.3,20.5,29.76,SW,224,1.0,4.0,64,0.00,,,0.00,meteohub,2013-02-20 11:16:00,
2013-02-20 06:21:00,31.3,20.8,29.76,WSW,255,0.0,3.0,65,0.00,,,0.00,meteohub,2013-02-20 11:21:00,
2013-02-20 06:26:00,31.3,20.5,29.76,West,280,0.0,3.0,64,0.00,,,0.00,meteohub,2013-02-20 11:26:00,
2013-02-20 06:31:00,31.3,20.5,29.77,WSW,255,0.0,5.0,64,0.00,,,0.00,meteohub,2013-02-20 11:31:00,
2013-02-20 06:36:00,31.3,20.5,29.77,West,263,2.0,5.0,64,0.00,,,0.00,meteohub,2013-02-20 11:36:00,
2013-02-20 06:41:00,30.9,20.1,29.77,West,270,2.0,5.0,64,0.00,,,0.00,meteohub,2013-02-20 11:41:00,
2013-02-20 06:46:00,30.9,20.1,29.78,West,267,2.0,5.0,64,0.00,,,0.00,meteohub,2013-02-20 11:46:00,
2013-02-20 06:51:00,30.9,20.1,29.78,WSW,255,1.0,4.0,64,0.00,,,0.00,meteohub,2013-02-20 11:51:00,
2013-02-20 06:56:00,30.9,20.1,29.78,West,269,1.0,4.0,64,0.00,,,0.00,meteohub,2013-02-20 11:56:00,
2013-02-20 07:01:00,30.9,19.8,29.78,WSW,248,1.0,5.0,63,0.00,,,0.00,meteohub,2013-02-20 12:01:00,
2013-02-20 07:06:00,30.9,19.4,29.78,West,274,3.0,5.0,62,0.00,,,0.00,meteohub,2013-02-20 12:06:00,
2013-02-20 07:11:00,30.9,19.4,29.78,WSW,246,0.0,5.0,62,0.00,,,0.00,meteohub,2013-02-20 12:11:00,
2013-02-20 07:16:00,30.9,19.4,29.78,WSW,252,2.0,5.0,62,0.00,,,0.00,meteohub,2013-02-20 12:16:00,
2013-02-20 07:21:00,30.9,18.7,29.78,West,277,1.0,4.0,60,0.00,,,0.00,meteohub,2013-02-20 12:21:00,
2013-02-20 07:26:00,30.9,18.7,29.79,West,268,1.0,6.0,60,0.00,,,0.00,meteohub,2013-02-20 12:26:00,
2013-02-20 07:31:00,30.9,19.0,29.79,WSW,257,0.0,6.0,61,0.00,,,0.00,meteohub,2013-02-20 12:31:00,
2013-02-20 07:36:00,30.9,19.0,29.79,West,277,0.0,6.0,61,0.00,,,0.00,meteohub,2013-02-20 12:36:00,
2013-02-20 07:41:00,30.7,18.9,29.79,SW,232,2.0,5.0,61,0.00,,,0.00,meteohub,2013-02-20 12:41:00,
2013-02-20 07:46:00,30.7,19.2,29.80,WSW,254,1.0,5.0,62,0.00,,,0.00,meteohub,2013-02-20 12:46:00,
2013-02-20 07:51:00,30.7,19.2,29.80,SW,229,4.0,5.0,62,0.00,,,0.00,meteohub,2013-02-20 12:51:00,
2013-02-20 07:56:00,30.7,19.6,29.80,West,270,0.0,6.0,63,0.00,,,0.00,meteohub,2013-02-20 12:56:00,
2013-02-20 08:01:00,30.7,19.9,29.80,SW,228,0.0,6.0,64,0.00,,,0.00,meteohub,2013-02-20 13:01:00,
2013-02-20 08:06:00,30.7,20.3,29.80,West,276,1.0,5.0,65,0.00,,,0.00,meteohub,2013-02-20 13:06:00,
2013-02-20 08:11:00,30.7,20.3,29.80,WNW,290,1.0,6.0,65,0.00,,,0.00,meteohub,2013-02-20 13:11:00,
2013-02-20 08:16:00,30.7,20.3,29.80,WSW,257,1.0,6.0,65,0.00,,,0.00,meteohub,2013-02-20 13:16:00,
2013-02-20 08:21:00,30.7,20.3,29.80,West,262,1.0,5.0,65,0.00,,,0.00,meteohub,2013-02-20 13:21:00,
2013-02-20 08:26:00,30.7,20.7,29.80,WNW,283,2.0,5.0,66,0.00,,,0.00,meteohub,2013-02-20 13:26:00,
2013-02-20 08:31:00,30.7,20.7,29.80,West,260,5.0,7.0,66,0.00,,,0.00,meteohub,2013-02-20 13:31:00,
2013-02-20 08:36:00,30.7,20.3,29.80,West,277,1.0,7.0,65,0.00,,,0.00,meteohub,2013-02-20 13:36:00,
2013-02-20 08:41:00,30.9,20.5,29.81,SW,229,4.0,7.0,65,0.00,,,0.00,meteohub,2013-02-20 13:41:00,
2013-02-20 08:46:00,30.9,20.8,29.81,WSW,253,4.0,7.0,66,0.00,,,0.00,meteohub,2013-02-20 13:46:00,
2013-02-20 08:51:00,30.9,20.1,29.81,WSW,246,4.0,7.0,64,0.00,,,0.00,meteohub,2013-02-20 13:51:00,
2013-02-20 08:56:00,30.9,19.8,29.81,WSW,255,1.0,7.0,63,0.00,,,0.00,meteohub,2013-02-20 13:56:00,
2013-02-20 09:01:00,31.1,20.3,29.81,WNW,282,3.0,7.0,64,0.00,,,0.00,meteohub,2013-02-20 14:01:00,
2013-02-20 09:06:00,31.5,20.3,29.81,WSW,248,7.0,7.0,63,0.00,,,0.00,meteohub,2013-02-20 14:06:00,
2013-02-20 09:11:00,31.5,18.9,29.81,WSW,248,7.0,9.0,59,0.00,,,0.00,meteohub,2013-02-20 14:11:00,
2013-02-20 09:16:00,31.6,19.0,29.81,NNW,345,2.0,9.0,59,0.00,,,0.00,meteohub,2013-02-20 14:16:00,
2013-02-20 09:21:00,31.6,17.8,29.81,SSW,210,5.0,9.0,56,0.00,,,0.00,meteohub,2013-02-20 14:21:00,
2013-02-20 09:26:00,31.6,17.2,29.81,WSW,251,1.0,8.0,55,0.00,,,0.00,meteohub,2013-02-20 14:26:00,
2013-02-20 09:31:00,32.0,17.6,29.81,SW,224,4.0,8.0,55,0.00,,,0.00,meteohub,2013-02-20 14:31:00,
2013-02-20 09:36:00,31.8,16.2,29.82,NW,309,1.0,8.0,52,0.00,,,0.00,meteohub,2013-02-20 14:36:00,
2013-02-20 09:41:00,32.0,17.2,29.82,West,273,2.0,9.0,54,0.00,,,0.00,meteohub,2013-02-20 14:41:00,
2013-02-20 09:46:00,32.2,17.1,29.82,NW,318,1.0,9.0,53,0.00,,,0.00,meteohub,2013-02-20 14:46:00,
2013-02-20 09:51:00,32.2,17.1,29.81,NE,41,2.0,9.0,53,0.00,,,0.00,meteohub,2013-02-20 14:51:00,
2013-02-20 09:56:00,32.0,16.9,29.81,West,273,0.0,8.0,53,0.00,,,0.00,meteohub,2013-02-20 14:56:00,
2013-02-20 10:01:00,32.4,17.6,29.81,WSW,250,3.0,8.0,54,0.00,,,0.00,meteohub,2013-02-20 15:01:00,
2013-02-20 10:06:00,32.4,15.8,29.82,South,186,3.0,8.0,50,0.00,,,0.00,meteohub,2013-02-20 15:06:00,
2013-02-20 10:11:00,32.4,15.3,29.82,West,260,2.0,6.0,49,0.00,,,0.00,meteohub,2013-02-20 15:11:00,
2013-02-20 10:16:00,31.8,14.9,29.81,WNW,288,2.0,10.0,49,0.00,,,0.00,meteohub,2013-02-20 15:16:00,
2013-02-20 10:21:00,32.4,16.3,29.82,WNW,291,2.0,10.0,51,0.00,,,0.00,meteohub,2013-02-20 15:21:00,
2013-02-20 10:26:00,32.5,15.4,29.82,SW,215,2.0,7.0,49,0.00,,,0.00,meteohub,2013-02-20 15:26:00,
2013-02-20 10:31:00,32.7,15.3,29.82,SW,224,5.0,7.0,48,0.00,,,0.00,meteohub,2013-02-20 15:31:00,
2013-02-20 10:36:00,33.1,17.4,29.82,West,280,3.0,8.0,52,0.00,,,0.00,meteohub,2013-02-20 15:36:00,
2013-02-20 10:41:00,32.9,15.4,29.82,WNW,299,0.0,8.0,48,0.00,,,0.00,meteohub,2013-02-20 15:41:00,
2013-02-20 10:46:00,32.5,15.4,29.81,SW,231,0.0,8.0,49,0.00,,,0.00,meteohub,2013-02-20 15:46:00,
2013-02-20 10:51:00,32.9,15.8,29.81,WNW,288,4.0,5.0,49,0.00,,,0.00,meteohub,2013-02-20 15:51:00,
2013-02-20 10:56:00,32.7,15.6,29.81,West,278,2.0,8.0,49,0.00,,,0.00,meteohub,2013-02-20 15:56:00,
2013-02-20 11:01:00,33.1,16.5,29.82,SW,221,2.0,8.0,50,0.00,,,0.00,meteohub,2013-02-20 16:01:00,
2013-02-20 11:06:00,32.9,15.8,29.81,WSW,246,3.0,8.0,49,0.00,,,0.00,meteohub,2013-02-20 16:06:00,
2013-02-20 11:11:00,32.4,14.9,29.81,NW,324,2.0,8.0,48,0.00,,,0.00,meteohub,2013-02-20 16:11:00,
2013-02-20 11:16:00,32.5,15.4,29.81,SW,228,2.0,8.0,49,0.00,,,0.00,meteohub,2013-02-20 16:16:00,
2013-02-20 11:21:00,32.9,15.8,29.81,West,269,0.0,7.0,49,0.00,,,0.00,meteohub,2013-02-20 16:21:00,
2013-02-20 11:26:00,33.3,15.6,29.81,WNW,287,1.0,9.0,48,0.00,,,0.00,meteohub,2013-02-20 16:26:00,
2013-02-20 11:31:00,33.1,15.1,29.81,SW,215,3.0,9.0,47,0.00,,,0.00,meteohub,2013-02-20 16:31:00,
2013-02-20 11:36:00,32.7,15.3,29.81,WSW,257,5.0,8.0,48,0.00,,,0.00,meteohub,2013-02-20 16:36:00,
2013-02-20 11:41:00,32.5,15.4,29.81,SW,221,4.0,8.0,49,0.00,,,0.00,meteohub,2013-02-20 16:41:00,
2013-02-20 11:46:00,32.4,14.9,29.81,NW,316,1.0,8.0,48,0.00,,,0.00,meteohub,2013-02-20 16:46:00,
2013-02-20 11:51:00,33.1,16.0,29.81,West,281,1.0,6.0,49,0.00,,,0.00,meteohub,2013-02-20 16:51:00,
2013-02-20 11:56:00,33.3,15.3,29.81,NNW,337,2.0,6.0,47,0.00,,,0.00,meteohub,2013-02-20 16:56:00,
2013-02-20 12:01:00,33.3,16.2,29.80,NW,311,1.0,6.0,49,0.00,,,0.00,meteohub,2013-02-20 17:01:00,
2013-02-20 12:06:00,33.6,15.6,29.80,WNW,285,0.0,5.0,47,0.00,,,0.00,meteohub,2013-02-20 17:06:00,
2013-02-20 12:11:00,33.6,15.6,29.80,WNW,300,0.0,5.0,47,0.00,,,0.00,meteohub,2013-02-20 17:11:00,
2013-02-20 12:16:00,33.6,15.1,29.80,ESE,117,0.0,4.0,46,0.00,,,0.00,meteohub,2013-02-20 17:16:00,
2013-02-20 12:21:00,33.6,15.6,29.80,West,280,1.0,4.0,47,0.00,,,0.00,meteohub,2013-02-20 17:21:00,
2013-02-20 12:26:00,33.4,14.9,29.80,West,273,1.0,5.0,46,0.00,,,0.00,meteohub,2013-02-20 17:26:00,
2013-02-20 12:31:00,32.9,14.4,29.80,West,267,1.0,7.0,46,0.00,,,0.00,meteohub,2013-02-20 17:31:00,
2013-02-20 12:36:00,32.5,15.4,29.80,NE,38,0.0,7.0,49,0.00,,,0.00,meteohub,2013-02-20 17:36:00,
2013-02-20 12:41:00,32.4,14.4,29.80,WSW,248,1.0,7.0,47,0.00,,,0.00,meteohub,2013-02-20 17:41:00,
2013-02-20 12:46:00,32.4,13.8,29.80,West,259,2.0,7.0,46,0.00,,,0.00,meteohub,2013-02-20 17:46:00,
2013-02-20 12:51:00,32.0,13.6,29.80,NW,309,0.0,7.0,46,0.00,,,0.00,meteohub,2013-02-20 17:51:00,
2013-02-20 12:56:00,32.2,14.2,29.80,WSW,252,1.0,7.0,47,0.00,,,0.00,meteohub,2013-02-20 17:56:00,
2013-02-20 13:01:00,32.2,13.6,29.80,WSW,255,2.0,7.0,46,0.00,,,0.00,meteohub,2013-02-20 18:01:00,
2013-02-20 13:06:00,32.2,14.7,29.80,WNW,282,2.0,6.0,48,0.00,,,0.00,meteohub,2013-02-20 18:06:00,
2013-02-20 13:11:00,32.2,14.2,29.80,West,278,1.0,6.0,47,0.00,,,0.00,meteohub,2013-02-20 18:11:00,
2013-02-20 13:16:00,32.2,13.6,29.80,West,269,0.0,5.0,46,0.00,,,0.00,meteohub,2013-02-20 18:16:00,
2013-02-20 13:21:00,32.2,14.7,29.80,NNE,13,0.0,5.0,48,0.00,,,0.00,meteohub,2013-02-20 18:21:00,
2013-02-20 13:26:00,32.2,15.1,29.80,West,259,2.0,5.0,49,0.00,,,0.00,meteohub,2013-02-20 18:26:00,
2013-02-20 13:31:00,32.2,15.6,29.80,SW,236,1.0,7.0,50,0.00,,,0.00,meteohub,2013-02-20 18:31:00,
2013-02-20 13:36:00,32.4,15.8,29.80,SW,233,2.0,7.0,50,0.00,,,0.00,meteohub,2013-02-20 18:36:00,
2013-02-20 13:41:00,32.4,17.1,29.80,West,259,0.0,7.0,53,0.00,,,0.00,meteohub,2013-02-20 18:41:00,
2013-02-20 13:46:00,32.4,15.3,29.80,WSW,255,3.0,7.0,49,0.00,,,0.00,meteohub,2013-02-20 18:46:00,
2013-02-20 13:51:00,32.2,15.1,29.80,North,356,4.0,9.0,49,0.00,,,0.00,meteohub,2013-02-20 18:51:00,
2013-02-20 13:56:00,32.2,14.7,29.80,NNW,335,3.0,9.0,48,0.00,,,0.00,meteohub,2013-02-20 18:56:00,
2013-02-20 14:01:00,32.4,14.9,29.81,West,270,2.0,9.0,48,0.00,,,0.00,meteohub,2013-02-20 19:01:00,
2013-02-20 14:06:00,32.7,15.3,29.81,WSW,242,2.0,10.0,48,0.00,,,0.00,meteohub,2013-02-20 19:06:00,
2013-02-20 14:11:00,32.7,15.6,29.81,North,6,1.0,10.0,49,0.00,,,0.00,meteohub,2013-02-20 19:11:00,
2013-02-20 14:16:00,32.5,15.4,29.81,West,272,2.0,10.0,49,0.00,,,0.00,meteohub,2013-02-20 19:16:00,
2013-02-20 14:21:00,32.2,15.1,29.81,WSW,242,0.0,8.0,49,0.00,,,0.00,meteohub,2013-02-20 19:21:00,
2013-02-20 14:26:00,31.8,15.8,29.81,SW,232,4.0,8.0,51,0.00,,,0.00,meteohub,2013-02-20 19:26:00,
2013-02-20 14:31:00,32.4,15.8,29.81,WSW,242,0.0,4.0,50,0.00,,,0.00,meteohub,2013-02-20 19:31:00,
2013-02-20 14:36:00,32.4,14.4,29.81,NW,315,1.0,4.0,47,0.00,,,0.00,meteohub,2013-02-20 19:36:00,
2013-02-20 14:41:00,32.5,15.1,29.81,SSW,210,2.0,9.0,48,0.00,,,0.00,meteohub,2013-02-20 19:41:00,
2013-02-20 14:46:00,32.4,14.9,29.81,WSW,246,3.0,9.0,48,0.00,,,0.00,meteohub,2013-02-20 19:46:00,
2013-02-20 14:51:00,32.5,16.0,29.81,WSW,246,5.0,9.0,50,0.00,,,0.00,meteohub,2013-02-20 19:51:00,
2013-02-20 14:56:00,32.4,14.4,29.82,West,268,1.0,9.0,47,0.00,,,0.00,meteohub,2013-02-20 19:56:00,
2013-02-20 15:01:00,32.2,14.7,29.82,NE,43,2.0,9.0,48,0.00,,,0.00,meteohub,2013-02-20 20:01:00,
2013-02-20 15:06:00,32.9,14.9,29.82,NW,323,1.0,9.0,47,0.00,,,0.00,meteohub,2013-02-20 20:06:00,
2013-02-20 15:11:00,33.3,15.3,29.82,West,264,4.0,9.0,47,0.00,,,0.00,meteohub,2013-02-20 20:11:00,
2013-02-20 15:16:00,32.7,14.2,29.82,West,278,2.0,9.0,46,0.00,,,0.00,meteohub,2013-02-20 20:16:00,
2013-02-20 15:21:00,32.2,13.3,29.82,NE,55,3.0,9.0,45,0.00,,,0.00,meteohub,2013-02-20 20:21:00,
2013-02-20 15:26:00,32.0,14.5,29.82,West,270,0.0,10.0,48,0.00,,,0.00,meteohub,2013-02-20 20:26:00,
2013-02-20 15:31:00,31.6,13.6,29.82,West,260,4.0,10.0,47,0.00,,,0.00,meteohub,2013-02-20 20:31:00,
2013-02-20 15:36:00,31.3,13.8,29.83,West,277,0.0,10.0,48,0.00,,,0.00,meteohub,2013-02-20 20:36:00,
2013-02-20 15:41:00,31.3,15.6,29.83,West,276,1.0,9.0,52,0.00,,,0.00,meteohub,2013-02-20 20:41:00,
2013-02-20 15:46:00,31.1,14.2,29.82,WNW,290,0.0,7.0,49,0.00,,,0.00,meteohub,2013-02-20 20:46:00,
2013-02-20 15:51:00,30.9,14.0,29.83,SW,235,0.0,6.0,49,0.00,,,0.00,meteohub,2013-02-20 20:51:00,
2013-02-20 15:56:00,31.1,14.2,29.83,West,260,0.0,6.0,49,0.00,,,0.00,meteohub,2013-02-20 20:56:00,
2013-02-20 16:01:00,30.9,14.0,29.83,SSW,207,1.0,6.0,49,0.00,,,0.00,meteohub,2013-02-20 21:01:00,
2013-02-20 16:06:00,30.7,13.8,29.83,WSW,242,4.0,8.0,49,0.00,,,0.00,meteohub,2013-02-20 21:06:00,
2013-02-20 16:11:00,30.6,14.2,29.83,West,277,1.0,8.0,50,0.00,,,0.00,meteohub,2013-02-20 21:11:00,
2013-02-20 16:16:00,30.4,13.5,29.84,West,278,0.0,8.0,49,0.00,,,0.00,meteohub,2013-02-20 21:16:00,
2013-02-20 16:21:00,30.6,13.6,29.84,WSW,245,3.0,6.0,49,0.00,,,0.00,meteohub,2013-02-20 21:21:00,
2013-02-20 16:26:00,30.4,14.0,29.84,SSW,211,1.0,6.0,50,0.00,,,0.00,meteohub,2013-02-20 21:26:00,
2013-02-20 16:31:00,30.4,14.4,29.84,WNW,285,1.0,6.0,51,0.00,,,0.00,meteohub,2013-02-20 21:31:00,
2013-02-20 16:36:00,30.6,15.1,29.84,SW,219,2.0,5.0,52,0.00,,,0.00,meteohub,2013-02-20 21:36:00,
2013-02-20 16:41:00,30.6,15.4,29.84,WSW,246,2.0,4.0,53,0.00,,,0.00,meteohub,2013-02-20 21:41:00,
2013-02-20 16:46:00,30.4,15.3,29.83,WSW,253,3.0,4.0,53,0.00,,,0.00,meteohub,2013-02-20 21:46:00,
2013-02-20 16:51:00,30.4,15.3,29.84,West,266,3.0,5.0,53,0.00,,,0.00,meteohub,2013-02-20 21:51:00,
2013-02-20 16:56:00,30.4,15.3,29.84,WSW,250,1.0,6.0,53,0.00,,,0.00,meteohub,2013-02-20 21:56:00,
2013-02-20 17:01:00,30.2,14.7,29.84,WSW,246,1.0,6.0,52,0.00,,,0.00,meteohub,2013-02-20 22:01:00,
2013-02-20 17:06:00,30.0,14.5,29.85,SW,233,0.0,6.0,52,0.00,,,0.00,meteohub,2013-02-20 22:06:00,
2013-02-20 17:11:00,30.0,14.9,29.85,SW,224,0.0,5.0,53,0.00,,,0.00,meteohub,2013-02-20 22:11:00,
2013-02-20 17:16:00,30.0,15.4,29.85,West,270,0.0,4.0,54,0.00,,,0.00,meteohub,2013-02-20 22:16:00,
2013-02-20 17:21:00,30.0,14.9,29.85,WSW,245,2.0,3.0,53,0.00,,,0.00,meteohub,2013-02-20 22:21:00,
2013-02-20 17:26:00,30.0,13.6,29.85,West,264,2.0,7.0,50,0.00,,,0.00,meteohub,2013-02-20 22:26:00,
2013-02-20 17:31:00,30.0,13.1,29.86,West,271,1.0,7.0,49,0.00,,,0.00,meteohub,2013-02-20 22:31:00,
2013-02-20 17:36:00,29.8,14.0,29.86,West,268,2.0,7.0,51,0.00,,,0.00,meteohub,2013-02-20 22:36:00,
2013-02-20 17:41:00,29.8,14.7,29.86,SSW,210,2.0,5.0,53,0.00,,,0.00,meteohub,2013-02-20 22:41:00,
2013-02-20 17:47:00,29.8,14.7,29.86,West,260,1.0,4.0,53,0.00,,,0.00,meteohub,2013-02-20 22:47:00,
2013-02-20 17:52:00,29.8,14.7,29.86,WNW,293,0.0,3.0,53,0.00,,,0.00,meteohub,2013-02-20 22:52:00,
2013-02-20 17:57:00,29.8,14.4,29.86,West,263,2.0,4.0,52,0.00,,,0.00,meteohub,2013-02-20 22:57:00,
2013-02-20 18:02:00,29.7,15.1,29.87,NNW,337,0.0,5.0,54,0.00,,,0.00,meteohub,2013-02-20 23:02:00,
2013-02-20 18:07:00,29.7,15.1,29.87,East,91,2.0,5.0,54,0.00,,,0.00,meteohub,2013-02-20 23:07:00,
2013-02-20 18:12:00,29.5,14.9,29.88,SW,218,2.0,8.0,54,0.00,,,0.00,meteohub,2013-02-20 23:12:00,
2013-02-20 18:17:00,29.1,15.4,29.88,WNW,302,0.0,8.0,56,0.00,,,0.00,meteohub,2013-02-20 23:17:00,
2013-02-20 18:22:00,28.9,15.6,29.88,West,261,5.0,7.0,57,0.00,,,0.00,meteohub,2013-02-20 23:22:00,
2013-02-20 18:27:00,28.8,15.8,29.88,NW,313,2.0,10.0,58,0.00,,,0.00,meteohub,2013-02-20 23:27:00,
2013-02-20 18:32:00,28.8,15.4,29.88,WSW,252,5.0,10.0,57,0.00,,,0.00,meteohub,2013-02-20 23:32:00,
2013-02-20 18:37:00,28.6,15.3,29.88,WNW,293,1.0,10.0,57,0.00,,,0.00,meteohub,2013-02-20 23:37:00,
2013-02-20 18:42:00,28.6,15.6,29.88,NE,56,1.0,7.0,58,0.00,,,0.00,meteohub,2013-02-20 23:42:00,
2013-02-20 18:47:00,28.2,15.3,29.89,SW,233,1.0,7.0,58,0.00,,,0.00,meteohub,2013-02-20 23:47:00,
2013-02-20 18:52:00,28.2,15.3,29.89,West,268,2.0,5.0,58,0.00,,,0.00,meteohub,2013-02-20 23:52:00,
2013-02-20 18:57:00,28.0,14.7,29.89,North,354,1.0,10.0,57,0.00,,,0.00,meteohub,2013-02-20 23:57:00,
2013-02-20 19:02:00,28.0,15.3,29.90,West,273,2.0,10.0,58,0.00,,,0.00,meteohub,2013-02-21 00:02:00,
2013-02-20 19:07:00,28.0,14.7,29.89,SW,235,3.0,10.0,57,0.00,,,0.00,meteohub,2013-02-21 00:07:00,
2013-02-20 19:12:00,27.9,14.5,29.89,NNW,345,1.0,10.0,57,0.00,,,0.00,meteohub,2013-02-21 00:12:00,
2013-02-20 19:17:00,27.9,14.2,29.90,WNW,295,2.0,10.0,56,0.00,,,0.00,meteohub,2013-02-21 00:17:00,
2013-02-20 19:22:00,27.7,14.0,29.90,West,274,1.0,7.0,56,0.00,,,0.00,meteohub,2013-02-21 00:22:00,
2013-02-20 19:27:00,27.7,13.6,29.90,SW,231,3.0,7.0,55,0.00,,,0.00,meteohub,2013-02-21 00:27:00,
2013-02-20 19:32:00,27.7,12.7,29.90,WSW,242,1.0,8.0,53,0.00,,,0.00,meteohub,2013-02-21 00:32:00,
2013-02-20 19:37:00,27.5,12.2,29.91,NE,56,2.0,10.0,52,0.00,,,0.00,meteohub,2013-02-21 00:37:00,
2013-02-20 19:42:00,27.3,12.4,29.91,WSW,246,6.0,10.0,53,0.00,,,0.00,meteohub,2013-02-21 00:42:00,
2013-02-20 19:47:00,27.3,12.0,29.91,ENE,77,2.0,10.0,52,0.00,,,0.00,meteohub,2013-02-21 00:47:00,
2013-02-20 19:52:00,27.3,12.4,29.91,NNW,333,2.0,9.0,53,0.00,,,0.00,meteohub,2013-02-21 00:52:00,
2013-02-20 19:57:00,27.1,11.8,29.91,West,268,2.0,9.0,52,0.00,,,0.00,meteohub,2013-02-21 00:57:00,
2013-02-20 20:02:00,27.1,12.2,29.92,WNW,290,2.0,7.0,53,0.00,,,0.00,meteohub,2013-02-21 01:02:00,
2013-02-20 20:07:00,27.1,12.7,29.92,WSW,257,5.0,8.0,54,0.00,,,0.00,meteohub,2013-02-21 01:07:00,
2013-02-20 20:12:00,27.0,12.0,29.92,WSW,249,2.0,8.0,53,0.00,,,0.00,meteohub,2013-02-21 01:12:00,
2013-02-20 20:17:00,27.0,11.7,29.91,WSW,240,5.0,10.0,52,0.00,,,0.00,meteohub,2013-02-21 01:17:00,
2013-02-20 20:22:00,26.8,12.0,29.91,East,89,0.0,10.0,53,0.00,,,0.00,meteohub,2013-02-21 01:22:00,
2013-02-20 20:27:00,26.8,12.0,29.91,West,278,4.0,10.0,53,0.00,,,0.00,meteohub,2013-02-21 01:27:00,
2013-02-20 20:32:00,26.8,12.0,29.91,NW,315,3.0,9.0,53,0.00,,,0.00,meteohub,2013-02-21 01:32:00,
2013-02-20 20:37:00,26.6,12.2,29.91,West,278,2.0,7.0,54,0.00,,,0.00,meteohub,2013-02-21 01:37:00,
2013-02-20 20:42:00,26.4,12.0,29.91,West,260,1.0,7.0,54,0.00,,,0.00,meteohub,2013-02-21 01:42:00,
2013-02-20 20:47:00,26.4,12.0,29.91,West,266,1.0,7.0,54,0.00,,,0.00,meteohub,2013-02-21 01:47:00,
2013-02-20 20:52:00,26.2,12.2,29.91,NE,40,0.0,7.0,55,0.00,,,0.00,meteohub,2013-02-21 01:52:00,
2013-02-20 20:57:00,26.2,12.2,29.91,WSW,252,5.0,5.0,55,0.00,,,0.00,meteohub,2013-02-21 01:57:00,
2013-02-20 21:02:00,26.2,12.2,29.91,WSW,257,2.0,10.0,55,0.00,,,0.00,meteohub,2013-02-21 02:02:00,
2013-02-20 21:07:00,26.2,12.2,29.91,WSW,241,1.0,10.0,55,0.00,,,0.00,meteohub,2013-02-21 02:07:00,
2013-02-20 21:12:00,26.1,12.6,29.92,SW,236,2.0,10.0,56,0.00,,,0.00,meteohub,2013-02-21 02:12:00,
2013-02-20 21:17:00,26.1,12.6,29.92,NE,50,2.0,6.0,56,0.00,,,0.00,meteohub,2013-02-21 02:17:00,
2013-02-20 21:22:00,26.1,12.6,29.92,WNW,283,1.0,10.0,56,0.00,,,0.00,meteohub,2013-02-21 02:22:00,
2013-02-20 21:27:00,26.1,12.6,29.92,WSW,250,1.0,10.0,56,0.00,,,0.00,meteohub,2013-02-21 02:27:00,
2013-02-20 21:32:00,26.1,12.6,29.91,NW,315,0.0,10.0,56,0.00,,,0.00,meteohub,2013-02-21 02:32:00,
2013-02-20 21:37:00,25.9,12.4,29.91,West,278,3.0,10.0,56,0.00,,,0.00,meteohub,2013-02-21 02:37:00,
2013-02-20 21:42:00,25.9,12.7,29.91,SW,235,10.0,10.0,57,0.00,,,0.00,meteohub,2013-02-21 02:42:00,
2013-02-20 21:47:00,25.9,12.7,29.91,WSW,250,3.0,10.0,57,0.00,,,0.00,meteohub,2013-02-21 02:47:00,
2013-02-20 21:52:00,25.9,13.1,29.91,West,278,1.0,10.0,58,0.00,,,0.00,meteohub,2013-02-21 02:52:00,
2013-02-20 21:57:00,25.9,12.7,29.91,West,281,2.0,10.0,57,0.00,,,0.00,meteohub,2013-02-21 02:57:00,
2013-02-20 22:02:00,25.9,13.1,29.92,WSW,252,4.0,7.0,58,0.00,,,0.00,meteohub,2013-02-21 03:02:00,
2013-02-20 22:07:00,25.7,12.9,29.92,WSW,256,1.0,7.0,58,0.00,,,0.00,meteohub,2013-02-21 03:07:00,
2013-02-20 22:12:00,25.7,12.9,29.92,WNW,292,1.0,7.0,58,0.00,,,0.00,meteohub,2013-02-21 03:12:00,
2013-02-20 22:17:00,25.5,12.7,29.92,West,281,1.0,7.0,58,0.00,,,0.00,meteohub,2013-02-21 03:17:00,
2013-02-20 22:22:00,25.5,13.1,29.92,West,269,0.0,7.0,59,0.00,,,0.00,meteohub,2013-02-21 03:22:00,
2013-02-20 22:27:00,25.5,12.7,29.93,WSW,256,1.0,7.0,58,0.00,,,0.00,meteohub,2013-02-21 03:27:00,
2013-02-20 22:32:00,25.5,12.7,29.93,WNW,297,3.0,7.0,58,0.00,,,0.00,meteohub,2013-02-21 03:32:00,
2013-02-20 22:37:00,25.5,13.1,29.93,West,259,3.0,8.0,59,0.00,,,0.00,meteohub,2013-02-21 03:37:00,
2013-02-20 22:42:00,25.3,13.1,29.94,WSW,243,2.0,8.0,59,0.00,,,0.00,meteohub,2013-02-21 03:42:00,
2013-02-20 22:47:00,25.3,13.1,29.94,WNW,293,0.0,8.0,59,0.00,,,0.00,meteohub,2013-02-21 03:47:00,
2013-02-20 22:52:00,25.3,13.1,29.94,NW,312,2.0,8.0,59,0.00,,,0.00,meteohub,2013-02-21 03:52:00,
2013-02-20 22:56:00,25.2,12.9,29.94,West,271,0.0,6.0,59,0.00,,,0.00,meteohub,2013-02-21 03:56:00,
2013-02-20 23:01:00,25.2,13.3,29.94,WSW,245,0.0,6.0,60,0.00,,,0.00,meteohub,2013-02-21 04:01:00,
2013-02-20 23:07:00,25.2,13.3,29.94,WSW,256,1.0,4.0,60,0.00,,,0.00,meteohub,2013-02-21 04:07:00,
2013-02-20 23:12:00,25.0,13.1,29.94,West,269,1.0,4.0,60,0.00,,,0.00,meteohub,2013-02-21 04:12:00,
2013-02-20 23:17:00,25.0,13.1,29.94,West,259,1.0,6.0,60,0.00,,,0.00,meteohub,2013-02-21 04:17:00,
2013-02-20 23:22:00,25.0,13.1,29.95,West,267,1.0,6.0,60,0.00,,,0.00,meteohub,2013-02-21 04:22:00,
2013-02-20 23:27:00,25.0,13.1,29.94,SW,235,2.0,7.0,60,0.00,,,0.00,meteohub,2013-02-21 04:27:00,
2013-02-20 23:32:00,25.0,13.5,29.95,West,273,3.0,7.0,61,0.00,,,0.00,meteohub,2013-02-21 04:32:00,
2013-02-20 23:37:00,25.0,13.1,29.94,WNW,283,1.0,7.0,60,0.00,,,0.00,meteohub,2013-02-21 04:37:00,
2013-02-20 23:42:00,25.0,13.1,29.95,West,266,1.0,6.0,60,0.00,,,0.00,meteohub,2013-02-21 04:42:00,
2013-02-20 23:47:00,25.0,13.1,29.94,NNW,340,2.0,6.0,60,0.00,,,0.00,meteohub,2013-02-21 04:47:00,
2013-02-20 23:52:00,25.0,13.1,29.94,WSW,249,3.0,6.0,60,0.00,,,0.00,meteohub,2013-02-21 04:52:00,
2013-02-20 23:57:00,25.0,13.1,29.95,West,277,2.0,6.0,60,0.00,,,0.00,meteohub,2013-02-21 04:57:00,